Stations météo

Publicité
Montelimar, France (7577): Température de l'air & dewpoint: 18.01.2019 12:00:00 - 24.01.2019 12:00:00 (CET)Montelimar, France (7577): Température de l'air 5cm: 18.01.2019 12:00:00 - 24.01.2019 12:00:00 (CET)Montelimar, France (7577): Température de l'air -20cm & Température de l'air -100cm: 18.01.2019 12:00:00 - 24.01.2019 12:00:00 (CET)Montelimar, France (7577): Vitesse du vent & gusts: 18.01.2019 12:00:00 - 24.01.2019 12:00:00 (CET)Montelimar, France (7577): Direction du vent: 18.01.2019 12:00:00 - 24.01.2019 12:00:00 (CET)Montelimar, France (7577): reduced air pressure: 18.01.2019 12:00:00 - 24.01.2019 12:00:00 (CET)Montelimar, France (7577): visibility: 18.01.2019 12:00:00 - 24.01.2019 12:00:00 (CET)Montelimar, France (7577): Ensoleillement: 18.01.2019 12:00:00 - 24.01.2019 12:00:00 (CET)Montelimar, France (7577): Quantités de précipitations: 18.01.2019 12:00:00 - 24.01.2019 12:00:00 (CET)
Date & Time tt [°C] td [°C] tt 5cm [°C] tt -20cm [°C] tt -100cm [°C] ff [km/h] ff [knt] fx [km/h] fx [knt] dd ppp [hPa] vv [km] sd [min] rr [mm]
24.01.2019 12:00:00 4,1 -6,2 4,6 5,5 8,7 36 20 75 40 N 1006,4 20 22 0,0
24.01.2019 11:00:00 4,0 -4,7 3,8 5,5 8,7 38 21 72 39 N 1005,6 20 55 0,0
24.01.2019 10:00:00 3,5 -4,7 3,4 5,5 8,7 34 19 69 37 N 1004,8 20 0 0,0
24.01.2019 09:00:00 3,5 -4,5 2,5 5,5 8,7 32 18 77 41 N 1003,7 20 0 0,0
24.01.2019 08:00:00 3,4 -3,9 2,6 5,6 8,7 35 19 79 43 N 1002,6 20 0 0,0
24.01.2019 07:00:00 3,7 -3,4 2,9 5,6 8,7 40 22 76 41 N 1001,6 20 0 0,0
24.01.2019 06:00:00 3,5 -3,3 2,8 5,7 8,7 36 19 81 44 N 1000,1 20 0 0,0
24.01.2019 05:00:00 3,6 -2,6 3,1 5,7 8,7 36 19 78 42 N 1000,2 20 0 0,0
24.01.2019 04:00:00 3,9 -3,4 3,2 5,8 8,7 41 22 78 42 N 1000,0 20 0 0,0
24.01.2019 03:00:00 3,6 -3,7 2,6 5,8 8,7 29 16 59 32 N 999,7 20 0 0,0
24.01.2019 02:00:00 3,1 -3,3 2,2 5,9 8,8 25 13 54 29 NNE 999,1 20 0 0,0
24.01.2019 01:00:00 2,9 -3,0 1,6 5,9 8,7 27 14 61 33 N 998,9 20 0 0,0
24.01.2019 00:00:00 3,0 -2,7 1,5 6,0 8,8 30 16 62 33 N 998,4 20 0 0,0
23.01.2019 23:00:00 2,3 -1,1 1,5 6,0 8,7 22 12 45 25 NNE 998,2 20 0 0,0
23.01.2019 22:00:00 2,3 -1,7 1,5 6,0 8,8 22 12 40 21 NNE 997,9 20 0 0,0
23.01.2019 21:00:00 2,6 -1,6 2,0 6,0 8,7 20 11 45 24 NNE 997,7 20 0 0,0
23.01.2019 20:00:00 3,3 -2,2 2,1 6,0 8,8 19 10 41 22 NNE 997,1 20 0 0,0
23.01.2019 19:00:00 3,2 -2,5 2,2 6,0 8,7 15 8 46 25 N 996,7 20 0 0,0
23.01.2019 18:00:00 2,7 -0,2 2,3 6,0 8,8 25 14 44 24 NNE 996,3 20 0 0,0
23.01.2019 17:00:00 2,7 0,6 2,4 5,9 8,8 19 10 34 18 NNE 995,8 20 0 0,0
23.01.2019 16:00:00 2,6 1,3 1,1 5,9 8,8 11 6 24 13 NNE 995,0 20 0 1,0
23.01.2019 15:00:00 2,7 0,6 1,9 5,9 8,8 11 6 22 12 NNW 995,0 2,8 0 2,0
23.01.2019 14:00:00 4,8 -0,4 3,7 5,8 8,7 4 2 11 6 ENE 994,3 19 7 0,0
23.01.2019 13:00:00 4,7 0,1 5,9 5,8 8,7 4 2 9 5 SSE 994,8 20 33 0,0
23.01.2019 12:00:00 3,1 1,1 3,4 5,8 8,8 4 2 8 4 SE 995,9 6 8 0,0
23.01.2019 11:00:00 1,8 0,3 2,2 5,8 8,8 2 1 4 2 W 996,9 4,2 0 0,0
23.01.2019 10:00:00 1,0 -0,2 0,2 5,8 8,8 0 0 6 3 N 997,3 2,6 0 0,0
23.01.2019 09:00:00 0,5 -0,8 0,1 5,9 8,8 0 0 5 3 N 997,7 4,0 0 0,0
23.01.2019 08:00:00 0,3 -1,0 0,1 5,9 8,8 3 2 9 5 ENE 998,3 1,8 0 0,2
23.01.2019 07:00:00 0,6 -1,3 0,3 5,9 8,8 4 2 11 6 ENE 998,6 3,1 0 0,0
23.01.2019 06:00:00 0,7 -1,1 0,1 6,0 8,8 3 1 7 4 NE 999,2 5 0 0,0
23.01.2019 05:00:00 0,7 -1,1 -0,3 6,0 8,8 0 0 8 4 N 1000,0 5 0 0,0
23.01.2019 04:00:00 0,7 -1,2 -0,2 6,0 8,8 6 4 12 7 ENE 1000,8 6 0 0,0
23.01.2019 03:00:00 1,3 -0,8 -0,2 6,0 8,8 7 4 16 9 NE 1001,8 7 0 0,0
23.01.2019 02:00:00 1,8 -0,8 1,0 6,1 8,8 6 3 20 11 NNE 1002,0 10 0 0,0
23.01.2019 01:00:00 1,9 -0,2 1,5 6,1 8,8 12 7 26 14 NNE 1002,8 7 0 0,0
23.01.2019 00:00:00 2,7 -1,1 2,3 6,1 8,8 13 7 26 14 NE 1003,7 10 0 0,0
22.01.2019 23:00:00 3,1 -1,8 2,7 6,1 8,8 10 5 15 8 NNE 1004,0 12 0 0,0
22.01.2019 22:00:00 3,3 -2,0 1,3 6,1 8,8 6 3 12 7 NNE 1004,3 13 0 0,0
22.01.2019 21:00:00 2,8 -1,8 1,5 6,1 8,8 6 3 9 5 NNE 1004,7 12 0 0,0
22.01.2019 20:00:00 3,0 -1,9 1,8 6,1 8,8 4 2 8 4 NNE 1005,1 10 0 0,0
22.01.2019 19:00:00 3,3 -2,0 2,7 6,1 8,8 6 3 19 11 NE 1005,3 11 0 0,0
22.01.2019 18:00:00 3,5 -2,1 2,9 6,1 8,8 12 7 19 10 NNE 1005,6 11 0 0,0
22.01.2019 17:00:00 4,2 -2,4 4,0 6,0 8,8 11 6 21 12 NNE 1005,9 16 0 0,0
22.01.2019 16:00:00 4,7 -2,9 5,0 6,0 8,8 15 8 29 16 NNE 1006,5 18 33 0,0
22.01.2019 15:00:00 5,2 -2,2 8,0 6,0 8,8 16 9 34 18 NNE 1007,2 15 60 0,0
22.01.2019 14:00:00 4,5 -2,6 7,2 6,0 8,8 23 12 37 20 NNE 1008,2 18 60 0,0
22.01.2019 13:00:00 3,8 -2,8 6,1 6,0 8,8 24 13 37 20 NNE 1010,2 17 60 0,0
22.01.2019 12:00:00 3,0 -3,4 4,0 6,0 8,8 27 15 44 24 NNE 1011,9 18 53 0,0
22.01.2019 11:00:00 2,6 -4,0 3,7 6,1 8,8 26 14 46 25 NNE 1012,8 19 54 0,0
22.01.2019 10:00:00 2,1 -3,4 1,4 6,1 8,8 27 15 45 25 N 1013,4 19 34 0,0
22.01.2019 09:00:00 1,3 -4,0 1,0 6,2 8,8 28 15 48 26 NNE 1013,8 20 23 0,0
22.01.2019 08:00:00 1,5 -3,4 1,3 6,2 8,9 23 12 37 20 NNE 1014,1 19 0 0,0
22.01.2019 07:00:00 2,0 -3,3 1,8 6,3 8,8 17 9 38 21 NNE 1014,4 20 0 0,0
22.01.2019 06:00:00 2,3 -3,2 1,9 6,3 8,8 20 11 41 22 N 1014,5 20 0 0,0
22.01.2019 05:00:00 2,1 -2,8 2,0 6,4 8,8 24 13 43 23 NNE 1014,9 20 0 0,0
22.01.2019 04:00:00 2,8 -2,5 2,4 6,4 8,9 24 13 48 26 N 1015,8 20 0 0,0
22.01.2019 03:00:00 2,9 -2,2 2,3 6,4 8,8 21 11 38 20 N 1016,7 20 0 0,0
22.01.2019 02:00:00 2,7 -1,7 2,3 6,5 8,9 25 13 47 26 NNE 1017,0 16 0 0,0
22.01.2019 01:00:00 3,1 -1,1 2,9 6,5 8,9 24 13 55 30 NNE 1017,7 12 0 0,0
22.01.2019 00:00:00 3,3 -0,2 3,2 6,5 8,9 22 12 45 25 NNE 1018,3 10 0 0,0
21.01.2019 23:00:00 3,7 0,2 3,6 6,5 8,9 26 14 46 25 NNE 1018,3 11 0 0,0
21.01.2019 22:00:00 3,7 0,6 3,6 6,6 8,9 27 15 51 28 NNE 1018,2 9 0 0,0
21.01.2019 21:00:00 3,9 0,2 3,7 6,6 8,9 29 16 57 31 NNE 1018,2 11 0 0,0
21.01.2019 20:00:00 3,9 0,9 3,8 6,6 8,9 33 18 63 34 N 1017,8 7 0 0,0
21.01.2019 19:00:00 4,3 1,0 4,1 6,5 8,9 29 16 53 29 N 1017,5 7 0 0,0
21.01.2019 18:00:00 4,7 1,0 4,3 6,5 8,9 26 14 53 28 N 1017,4 10 0 0,0
21.01.2019 17:00:00 5,1 0,8 4,9 6,4 8,9 29 16 51 28 NNE 1017,3 11 40 0,0
21.01.2019 16:00:00 5,7 1,6 6,3 6,4 8,9 34 18 53 28 NNE 1017,0 12 8 0,0
21.01.2019 15:00:00 6,0 1,3 7,0 6,4 8,9 24 13 51 28 NNE 1017,2 16 38 0,0
21.01.2019 14:00:00 6,8 2,1 7,8 6,4 8,9 27 15 53 29 NNE 1017,2 19 44 0,0
21.01.2019 13:00:00 6,2 1,5 6,5 6,4 8,9 26 14 42 23 NNE 1017,8 20 1 0,0
21.01.2019 12:00:00 5,8 1,3 6,2 6,3 8,9 23 12 43 23 NNE 1017,9 20 1 0,0
21.01.2019 11:00:00 5,9 1,0 6,5 6,4 8,9 25 14 51 28 NNE 1018,2 20 50 0,0
21.01.2019 10:00:00 6,2 1,3 5,0 6,4 8,9 28 15 48 26 N 1017,7 20 24 0,0
21.01.2019 09:00:00 5,3 1,0 4,6 6,4 8,9 22 12 41 22 NNE 1017,5 20 0 0,0
21.01.2019 08:00:00 5,4 1,3 4,5 6,4 8,9 22 12 41 22 N 1016,8 20 0 0,0
21.01.2019 07:00:00 5,3 1,9 4,6 6,5 8,9 24 13 44 24 N 1016,2 16 0 0,0
21.01.2019 06:00:00 5,8 1,9 4,5 6,5 8,9 18 10 33 18 N 1015,9 20 0 0,0
21.01.2019 05:00:00 5,6 2,4 4,8 6,5 8,9 17 9 29 16 NNE 1015,9 20 0 0,0
21.01.2019 04:00:00 5,5 2,3 4,6 6,5 8,9 12 7 26 14 NNE 1016,0 17 0 0,0
21.01.2019 03:00:00 5,5 2,1 2,5 6,6 8,9 15 8 24 13 NNE 1016,0 20 0 0,0
21.01.2019 02:00:00 2,9 1,6 0,3 6,6 8,9 6 3 16 9 NNE 1016,0 13 0 0,0
21.01.2019 01:00:00 3,2 1,7 -2,7 6,6 8,9 9 5 13 7 NE 1015,9 20 0 0,0
21.01.2019 00:00:00 1,0 -0,9 -2,7 6,7 8,9 3 1 4 2 ENE 1015,9 5 0 0,0
20.01.2019 23:00:00 2,5 0,7 -0,7 6,7 8,9 0 0 5 3 N 1015,4 7 0 0,0
20.01.2019 22:00:00 3,4 1,1 0,1 6,6 8,9 0 0 7 4 N 1015,1 10 0 0,0
20.01.2019 21:00:00 4,4 1,8 1,3 6,6 8,9 4 2 6 4 E 1015,0 20 0 0,0
20.01.2019 20:00:00 5,3 2,3 2,2 6,5 8,9 3 2 8 5 N 1014,5 20 0 0,0
20.01.2019 19:00:00 6,4 2,3 3,5 6,4 8,9 0 0 5 3 N 1013,7 19 0 0,0
20.01.2019 18:00:00 8,3 2,5 5,4 6,3 8,9 0 0 10 5 N 1013,2 16 7 0,0
20.01.2019 17:00:00 10,0 2,6 10,7 6,2 8,9 5 3 12 7 S 1012,7 20 55 0,0
20.01.2019 16:00:00 10,2 2,8 10,6 6,1 8,9 8 4 15 8 S 1012,3 19 44 0,0
20.01.2019 15:00:00 11,0 2,8 12,7 6,0 8,9 8 4 14 8 SSE 1012,1 20 41 0,0
20.01.2019 14:00:00 9,9 2,5 11,1 6,0 8,9 5 3 8 5 S 1012,5 20 32 0,0
20.01.2019 13:00:00 8,3 2,1 10,7 6,0 8,9 3 2 6 3 SE 1013,1 20 11 0,0
20.01.2019 12:00:00 6,6 1,9 7,5 6,0 8,9 0 0 7 4 N 1013,8 20 34 0,0
20.01.2019 11:00:00 4,1 1,5 4,4 6,1 9,0 0 0 5 3 N 1013,9 19 31 0,0
20.01.2019 10:00:00 1,8 0,9 0,6 6,1 9,0 0 0 5 3 N 1013,4 7 0 0,0
20.01.2019 09:00:00 0,2 -0,7 -2,3 6,1 9,0 2 1 4 2 N 1013,2 10 0 0,0
20.01.2019 08:00:00 -0,3 -1,7 -2,8 6,1 9,0 0 0 4 2 N 1012,7 10 0 0,0
20.01.2019 07:00:00 0,2 -1,4 -2,7 6,2 9,0 0 0 4 2 N 1012,4 10 0 0,0
20.01.2019 06:00:00 1,4 -0,8 -0,8 6,2 9,0 0 0 3 2 N 1012,0 15 0 0,0
20.01.2019 05:00:00 2,3 -0,3 1,3 6,2 9,0 2 1 5 3 S 1012,3 18 0 0,0
20.01.2019 04:00:00 2,6 0,2 1,6 6,2 9,0 3 1 4 2 SSW 1012,8 13 0 0,0
20.01.2019 03:00:00 2,8 0,2 1,8 6,2 9,0 0 0 6 3 N 1013,1 15 0 0,0
20.01.2019 02:00:00 2,9 0,1 2,6 6,3 9,0 5 3 8 4 W 1013,0 14 0 0,0
20.01.2019 01:00:00 2,7 -0,2 2,3 6,3 9,0 0 0 5 3 N 1013,4 15 0 0,0
20.01.2019 00:00:00 2,2 -0,1 1,0 6,3 9,0 4 2 6 3 SW 1013,4 10 0 0,0
19.01.2019 23:00:00 2,1 -0,3 0,8 6,3 9,0 3 2 5 3 SW 1013,2 9 0 0,0
19.01.2019 22:00:00 1,5 -0,9 0,4 6,3 9,0 0 0 3 2 N 1013,1 12 0 0,0
19.01.2019 21:00:00 1,3 -1,1 -0,6 6,3 9,0 0 0 3 2 N 1013,1 11 0 0,0
19.01.2019 20:00:00 1,1 -1,8 -1,8 6,3 9,0 0 0 4 2 N 1013,0 14 0 0,0
19.01.2019 19:00:00 2,2 -1,6 -1,9 6,3 9,1 3 1 4 2 NE 1012,7 20 0 0,0
19.01.2019 18:00:00 4,7 -1,1 -0,4 6,2 9,0 0 0 3 1 N 1012,4 20 1 0,0
19.01.2019 17:00:00 8,2 -1,6 6,5 6,1 9,0 2 1 3 2 NNE 1012,3 20 58 0,0
19.01.2019 16:00:00 9,0 -2,3 12,7 6,0 9,0 0 0 8 5 N 1012,5 20 60 0,0
19.01.2019 15:00:00 7,8 -1,7 12,8 6,0 9,0 5 3 12 7 N 1012,9 20 60 0,0
19.01.2019 14:00:00 6,7 -1,5 11,1 6,0 9,0 8 4 16 9 N 1013,8 20 60 0,0
19.01.2019 13:00:00 5,6 -2,5 8,3 6,0 9,0 11 6 23 12 NNE 1014,9 20 60 0,0
19.01.2019 12:00:00 4,3 -1,5 6,0 6,1 9,0 13 7 24 13 NNE 1016,1 20 60 0,0
19.01.2019 11:00:00 2,4 -2,5 3,9 6,1 9,0 16 9 26 14 NNE 1016,7 19 60 0,0
19.01.2019 10:00:00 1,1 -2,5 0,6 6,2 9,1 14 8 24 13 NNE 1016,6 19 52 0,0
19.01.2019 09:00:00 -0,4 -3,1 -2,1 6,3 9,1 6 3 17 9 N 1016,4 18 1 0,0
19.01.2019 08:00:00 -0,8 -3,2 -2,0 6,4 9,1 6 4 13 7 NNE 1016,2 16 0 0,0
19.01.2019 07:00:00 -0,1 -3,1 -1,2 6,5 9,1 9 5 21 11 NNE 1016,0 20 0 0,0
19.01.2019 06:00:00 0,2 -3,0 -0,9 6,5 9,1 9 5 21 11 N 1016,0 20 0 0,0
19.01.2019 05:00:00 0,7 -2,4 -0,4 6,5 9,1 12 6 22 12 NNE 1016,2 20 0 0,0
19.01.2019 04:00:00 0,9 -2,5 0,0 6,6 9,1 13 7 25 13 NNE 1016,5 20 0 0,0
19.01.2019 03:00:00 1,7 -2,4 0,9 6,7 9,1 16 8 30 16 NNE 1016,8 20 0 0,0
19.01.2019 02:00:00 2,6 -2,5 2,0 6,7 9,1 18 10 36 19 N 1016,5 20 0 0,0
19.01.2019 01:00:00 3,0 -2,3 2,5 6,7 9,1 20 11 35 19 NNE 1016,6 20 0 0,0
19.01.2019 00:00:00 3,3 -2,0 2,7 6,8 9,1 19 10 33 18 NNE 1016,8 20 0 0,0
18.01.2019 23:00:00 3,5 -2,7 2,8 6,8 9,1 16 9 35 19 N 1016,8 20 0 0,0
18.01.2019 22:00:00 3,7 -2,9 3,1 6,9 9,1 19 10 38 21 N 1016,8 20 0 0,0
18.01.2019 21:00:00 3,6 -3,0 2,9 6,9 9,0 17 9 31 17 NNE 1016,8 20 0 0,0
18.01.2019 20:00:00 3,9 -3,4 3,1 6,9 9,1 18 10 34 18 N 1016,7 20 0 0,0
18.01.2019 19:00:00 3,9 -2,7 3,3 6,9 9,0 21 12 40 22 N 1016,5 20 0 0,0
18.01.2019 18:00:00 4,5 -3,1 3,6 7,0 9,1 14 8 37 20 NNE 1016,2 20 0 0,0
18.01.2019 17:00:00 5,1 -3,5 4,6 6,9 9,0 16 9 35 19 N 1016,1 20 0 0,0
18.01.2019 16:00:00 5,5 -3,1 5,4 6,9 9,0 18 10 46 25 NNE 1016,1 20 31 0,0
18.01.2019 15:00:00 6,0 -2,9 8,0 6,9 9,0 25 13 43 23 NNE 1016,3 20 57 0,0
18.01.2019 14:00:00 6,0 -2,4 7,7 6,9 9,0 22 12 47 26 N 1016,7 20 60 0,0
18.01.2019 13:00:00 5,7 -2,2 6,1 6,9 9,0 23 12 48 26 NNE 1017,2 20 47 0,0
18.01.2019 12:00:00 5,1 -0,7 6,7 7,0 9,0 24 13 42 23 N 1017,7 20 58 0,0

tt = Température de l'air
td = dewpoint
tt 5cm = Température de l'air 5cm
tt -20cm = Température de l'air -20cm
tt -100cm = Température de l'air -100cm
ff = Vitesse du vent
fx = gusts
dd = Direction du vent
ppp = reduced air pressure
vv = visibility
sd = Ensoleillement
rr = Quantités de précipitations

stations d'obs. à proximité